Simultaneous Nadir Overpasses (SNOs) Predictions

Prediction of SNOs between FY3D and NOAA-19 Satellite Orbit:

Table of predicted SNOs for the next 14.0 days since TLE Epoch: 9/10/2022
Index Date (FY3D) Time (FY3D) Lat,Lon (FY3D) SZA (FY3D ) Date (NOAA-19) Time (NOAA-19) Lat,Lon (NOAA-19) SZA (NOAA-19 ) Distance(km) Time Diff (sec)
1 09/15/2022 21:23:29 77.06,-154.85 74.55 09/15/2022 21:22:18 77.03,-156.45 74.63 40.08 71
2 09/15/2022 22:14:19 -77.24, 11.68 105.22 09/15/2022 22:13:15 -77.24, 11.76 105.22 1.77 64
3 09/15/2022 23:05:04 77.22, 179.08 74.77 09/15/2022 23:04:13 77.23, 178.96 74.79 3.07 51
4 09/15/2022 23:55:50 -77.23, -13.64 105.21 09/15/2022 23:55:15 -77.23, -13.79 105.20 3.66 35
5 09/16/2022 00:46:36 77.25, 153.57 74.83 09/16/2022 00:46:12 77.26, 153.61 74.84 1.26 24
6 09/16/2022 01:37:22 -77.26, -39.15 105.15 09/16/2022 01:37:14 -77.26, -39.14 105.15 0.30 8
7 09/16/2022 02:28:08 77.28, 128.06 74.90 09/16/2022 02:28:12 77.25, 128.07 74.86 3.73 4
8 09/16/2022 03:18:54 -77.29, -64.67 105.09 09/16/2022 03:19:13 -77.29, -64.49 105.10 4.26 19
9 09/16/2022 04:09:39 77.27, 102.73 74.91 09/16/2022 04:10:11 77.28, 102.72 74.91 1.14 32
10 09/16/2022 05:00:25 -77.28, -89.99 105.08 09/16/2022 05:01:13 -77.28, -90.04 105.08 1.21 48
11 09/16/2022 05:51:11 77.30, 77.22 74.97 09/16/2022 05:52:11 77.27, 77.18 74.93 3.43 60
12 09/16/2022 06:41:58 -77.35,-115.69 104.96 09/16/2022 06:43:12 -77.31,-115.39 105.03 8.59 74



Historial Predications of SNOs between FY3D and NOAA-19
